Location: Poughquag
(41.6090°N, 73.6820°W)
Time: 12:47:21
(UTC-04:00)

Vanguard 2 Rocket - Pass Details

Date: 03 June 2020
Orbit: 556 x 3324 km, 32.9° (Epoch: 06 July)

Event Time Altitude Azimuth Distance (km) Brightness Sun altitude
Rises 17:06:00 0° 259° (W) 3,900 11.2 34.4°
Reaches altitude 10° 17:08:18 10° 254° (WSW) 3,204 11.0 34.0°
Maximum altitude 17:16:20 53° 180° (S) 2,119 9.2 32.5°
Drops below altitude 10° 17:30:25 10° 110° (ESE) 5,427 10.4 29.8°
Sets 17:35:36 0° 107° (ESE) 6,791 10.8 28.9°
